OOSKS EBAW-EBST

Flight info

Callsign OOSKS
Flight time N/A
Altitude 1700
Route DCT
Aircraft DA40/L-SDGRY/S

Departure

Time 2026-04-30 18:22
Airport Antwerp International Airport (Deurne) (EBAW)

Arrival

Time N/A
Airport Sint-Truiden / Brustem Airfield (EBST)
Time Latitude Longitude Altitude Speed Heading
2026-04-30 18:00 51.18724 4.45468 34 ft 0 kts 218°
2026-04-30 18:02 51.18724 4.45467 34 ft 0 kts 218°
2026-04-30 18:15 51.18721 4.45426 34 ft 4 kts 317°
2026-04-30 18:16 51.18776 4.45486 33 ft 5 kts 13°
2026-04-30 18:16 51.18909 4.45410 34 ft 13 kts 326°
2026-04-30 18:17 51.18954 4.45406 34 ft 8 kts 51°
2026-04-30 18:17 51.18987 4.45472 34 ft 9 kts 51°
2026-04-30 18:17 51.19050 4.45482 32 ft 9 kts 306°
2026-04-30 18:18 51.19083 4.45454 32 ft 1 kts 49°
2026-04-30 18:20 51.19092 4.45449 32 ft 1 kts 312°
2026-04-30 18:20 51.19106 4.45429 31 ft 7 kts 310°
2026-04-30 18:20 51.19158 4.45356 30 ft 15 kts 322°
2026-04-30 18:20 51.19220 4.45286 29 ft 4 kts 348°
2026-04-30 18:21 51.19221 4.45323 29 ft 6 kts 117°
2026-04-30 18:21 51.19219 4.45330 29 ft 0 kts 110°
2026-04-30 18:21 51.19196 4.45431 29 ft 33 kts 110°
2026-04-30 18:21 51.19071 4.45953 118 ft 57 kts 112°
2026-04-30 18:22 51.18932 4.46546 293 ft 64 kts 111°
2026-04-30 18:22 51.18530 4.47988 588 ft 79 kts 119°
2026-04-30 18:22 51.18276 4.48809 787 ft 82 kts 103°
2026-04-30 18:23 51.18310 4.49648 1081 ft 77 kts 75°
2026-04-30 18:23 51.18701 4.50327 1198 ft 94 kts 61°
2026-04-30 18:23 51.19177 4.51062 1392 ft 95 kts 52°
2026-04-30 18:23 51.19664 4.51760 1563 ft 93 kts 56°
2026-04-30 18:24 51.20611 4.53274 1713 ft 102 kts 58°
2026-04-30 18:24 51.20903 4.54210 1730 ft 94 kts 92°
2026-04-30 18:24 51.20770 4.55262 1628 ft 100 kts 104°
2026-04-30 18:25 51.20699 4.56394 1503 ft 108 kts 98°
2026-04-30 18:25 51.20426 4.58642 1549 ft 101 kts 103°
2026-04-30 18:25 51.20271 4.59714 1639 ft 95 kts 103°
2026-04-30 18:26 51.19959 4.61889 1565 ft 100 kts 104°
2026-04-30 18:26 51.19803 4.62969 1662 ft 97 kts 106°
2026-04-30 18:26 51.19605 4.63976 1690 ft 99 kts 111°
2026-04-30 18:27 51.19112 4.66093 1623 ft 109 kts 103°
2026-04-30 18:27 51.18955 4.67234 1709 ft 104 kts 103°
2026-04-30 18:28 51.18652 4.69536 1587 ft 107 kts 104°
2026-04-30 18:28 51.18516 4.70708 1609 ft 105 kts 103°